Time,TemperatureF,DewpointF,PressureIn,WindDirection,WindDirectionDegrees,WindSpeedMPH,WindSpeedGustMPH,Humidity,HourlyPrecipIn,Conditions,Clouds,dailyrainin,SoftwareType,DateUTC
2013-08-21 00:01:00,61.6,59.9,30.09,West,267,0.0,0.0,94,0.00,,,0.00,Wunderground v.1.13,2013-08-21 04:01:00,
2013-08-21 00:03:00,61.4,59.7,30.09,West,267,0.0,0.0,94,0.00,,,0.00,Wunderground v.1.13,2013-08-21 04:03:00,
2013-08-21 00:07:00,61.2,59.5,30.10,West,267,0.0,0.0,94,0.00,,,0.00,Wunderground v.1.13,2013-08-21 04:07:00,
2013-08-21 00:12:00,60.8,58.8,30.10,West,267,0.0,0.0,93,0.00,,,0.00,Wunderground v.1.13,2013-08-21 04:12:00,
2013-08-21 00:13:00,60.8,59.1,30.10,West,267,0.0,0.0,94,0.00,,,0.00,Wunderground v.1.13,2013-08-21 04:13:00,
2013-08-21 00:16:00,60.7,59.0,30.10,West,267,0.0,0.0,94,0.00,,,0.00,Wunderground v.1.13,2013-08-21 04:16:00,
2013-08-21 00:21:00,60.5,58.8,30.10,West,267,0.0,0.0,94,0.00,,,0.00,Wunderground v.1.13,2013-08-21 04:21:00,
2013-08-21 00:27:00,60.5,58.8,30.10,West,267,0.0,0.0,94,0.00,,,0.00,Wunderground v.1.13,2013-08-21 04:27:00,
2013-08-21 00:34:00,60.3,58.9,30.10,West,267,0.0,0.0,95,0.00,,,0.00,Wunderground v.1.13,2013-08-21 04:34:00,
2013-08-21 00:39:00,60.0,58.3,30.10,West,267,0.0,0.0,94,0.00,,,0.00,Wunderground v.1.13,2013-08-21 04:39:00,
2013-08-21 00:44:00,59.8,58.4,30.10,West,267,0.0,0.0,95,0.00,,,0.00,Wunderground v.1.13,2013-08-21 04:44:00,
2013-08-21 00:50:00,59.7,58.3,30.10,West,267,0.0,0.0,95,0.00,,,0.00,Wunderground v.1.13,2013-08-21 04:50:00,
2013-08-21 00:55:00,59.3,57.9,30.10,West,267,0.0,0.0,95,0.00,,,0.00,Wunderground v.1.13,2013-08-21 04:55:00,
2013-08-21 01:00:00,59.1,57.7,30.10,West,267,0.0,0.0,95,0.00,,,0.00,Wunderground v.1.13,2013-08-21 05:00:00,
2013-08-21 01:07:00,59.1,58.0,30.10,West,267,0.0,0.0,96,0.00,,,0.00,Wunderground v.1.13,2013-08-21 05:07:00,
2013-08-21 01:13:00,59.0,57.9,30.10,West,267,0.0,0.0,96,0.00,,,0.00,Wunderground v.1.13,2013-08-21 05:13:00,
2013-08-21 01:19:00,59.0,57.6,30.10,West,267,0.0,0.0,95,0.00,,,0.00,Wunderground v.1.13,2013-08-21 05:19:00,
2013-08-21 01:25:00,58.9,57.5,30.10,West,267,0.0,0.0,95,0.00,,,0.00,Wunderground v.1.13,2013-08-21 05:25:00,
2013-08-21 01:30:00,58.8,57.7,30.10,West,267,0.0,0.0,96,0.00,,,0.00,Wunderground v.1.13,2013-08-21 05:30:00,
2013-08-21 01:35:00,58.7,57.6,30.09,West,267,0.0,0.0,96,0.00,,,0.00,Wunderground v.1.13,2013-08-21 05:35:00,
2013-08-21 01:42:00,58.4,57.3,30.10,West,267,0.0,0.0,96,0.00,,,0.00,Wunderground v.1.13,2013-08-21 05:42:00,
2013-08-21 01:47:00,58.4,57.3,30.10,West,267,0.0,0.0,96,0.00,,,0.00,Wunderground v.1.13,2013-08-21 05:47:00,
2013-08-21 01:52:00,58.5,57.4,30.10,West,267,0.0,0.0,96,0.00,,,0.00,Wunderground v.1.13,2013-08-21 05:52:00,
2013-08-21 01:57:00,58.2,57.1,30.10,West,267,0.0,0.0,96,0.00,,,0.00,Wunderground v.1.13,2013-08-21 05:57:00,
2013-08-21 02:02:00,57.9,56.8,30.10,West,267,0.0,0.0,96,0.00,,,0.00,Wunderground v.1.13,2013-08-21 06:02:00,
2013-08-21 02:08:00,57.8,56.7,30.10,West,267,0.0,0.0,96,0.00,,,0.00,Wunderground v.1.13,2013-08-21 06:08:00,
2013-08-21 02:13:00,57.7,56.6,30.10,West,267,0.0,0.0,96,0.00,,,0.00,Wunderground v.1.13,2013-08-21 06:13:00,
2013-08-21 02:18:00,57.5,56.4,30.10,West,267,0.0,0.0,96,0.00,,,0.00,Wunderground v.1.13,2013-08-21 06:18:00,
2013-08-21 02:23:00,57.4,56.3,30.11,West,267,0.0,0.0,96,0.00,,,0.00,Wunderground v.1.13,2013-08-21 06:23:00,
2013-08-21 02:29:00,57.4,56.3,30.11,West,267,0.0,0.0,96,0.00,,,0.00,Wunderground v.1.13,2013-08-21 06:29:00,
2013-08-21 02:34:00,57.2,56.1,30.11,West,267,0.0,0.0,96,0.00,,,0.00,Wunderground v.1.13,2013-08-21 06:34:00,
2013-08-21 02:39:00,57.0,55.9,30.11,West,267,0.0,0.0,96,0.00,,,0.00,Wunderground v.1.13,2013-08-21 06:39:00,
2013-08-21 02:44:00,56.8,55.7,30.11,West,267,0.0,0.0,96,0.00,,,0.00,Wunderground v.1.13,2013-08-21 06:44:00,
2013-08-21 02:49:00,56.7,55.6,30.11,West,267,0.0,0.0,96,0.00,,,0.00,Wunderground v.1.13,2013-08-21 06:49:00,
2013-08-21 02:54:00,56.8,55.7,30.11,West,267,0.0,0.0,96,0.00,,,0.00,Wunderground v.1.13,2013-08-21 06:54:00,
2013-08-21 02:59:00,56.8,55.7,30.11,West,267,0.0,0.0,96,0.00,,,0.00,Wunderground v.1.13,2013-08-21 06:59:00,
2013-08-21 03:04:00,56.8,56.0,30.11,West,267,0.0,0.0,97,0.00,,,0.00,Wunderground v.1.13,2013-08-21 07:04:00,
2013-08-21 03:09:00,56.7,55.6,30.11,West,267,0.0,0.0,96,0.00,,,0.00,Wunderground v.1.13,2013-08-21 07:09:00,
2013-08-21 03:14:00,56.3,55.2,30.11,West,267,0.0,0.0,96,0.00,,,0.00,Wunderground v.1.13,2013-08-21 07:14:00,
2013-08-21 03:19:00,56.2,55.1,30.11,West,267,0.0,0.0,96,0.00,,,0.00,Wunderground v.1.13,2013-08-21 07:19:00,
2013-08-21 03:24:00,56.1,55.0,30.11,West,267,0.0,0.0,96,0.00,,,0.00,Wunderground v.1.13,2013-08-21 07:24:00,
2013-08-21 03:29:00,56.0,54.9,30.11,West,267,0.0,0.0,96,0.00,,,0.00,Wunderground v.1.13,2013-08-21 07:29:00,
2013-08-21 03:34:00,56.1,55.0,30.11,West,267,0.0,0.0,96,0.00,,,0.00,Wunderground v.1.13,2013-08-21 07:34:00,
2013-08-21 03:39:00,56.1,55.0,30.11,West,267,0.0,0.0,96,0.00,,,0.00,Wunderground v.1.13,2013-08-21 07:39:00,
2013-08-21 03:44:00,56.1,55.0,30.11,West,267,0.0,0.0,96,0.00,,,0.00,Wunderground v.1.13,2013-08-21 07:44:00,
2013-08-21 03:49:00,55.9,54.8,30.11,West,267,0.0,0.0,96,0.00,,,0.00,Wunderground v.1.13,2013-08-21 07:49:00,
2013-08-21 03:54:00,55.9,55.1,30.11,West,267,0.0,0.0,97,0.00,,,0.00,Wunderground v.1.13,2013-08-21 07:54:00,
2013-08-21 03:59:00,55.8,54.7,30.11,West,267,0.0,0.0,96,0.00,,,0.00,Wunderground v.1.13,2013-08-21 07:59:00,
2013-08-21 04:04:00,55.5,54.4,30.11,West,267,0.0,0.0,96,0.00,,,0.00,Wunderground v.1.13,2013-08-21 08:04:00,
2013-08-21 04:09:00,55.6,54.8,30.11,West,267,0.0,0.0,97,0.00,,,0.00,Wunderground v.1.13,2013-08-21 08:09:00,
2013-08-21 04:14:00,55.4,54.3,30.11,West,267,0.0,0.0,96,0.00,,,0.00,Wunderground v.1.13,2013-08-21 08:14:00,
2013-08-21 04:19:00,55.2,54.4,30.12,West,267,0.0,0.0,97,0.00,,,0.00,Wunderground v.1.13,2013-08-21 08:19:00,
2013-08-21 04:24:00,55.4,54.6,30.12,West,267,0.0,1.0,97,0.00,,,0.00,Wunderground v.1.13,2013-08-21 08:24:00,
2013-08-21 04:29:00,55.3,54.5,30.12,West,267,0.0,0.0,97,0.00,,,0.00,Wunderground v.1.13,2013-08-21 08:29:00,
2013-08-21 04:34:00,55.3,54.5,30.12,West,267,0.0,0.0,97,0.00,,,0.00,Wunderground v.1.13,2013-08-21 08:34:00,
2013-08-21 04:39:00,55.1,54.3,30.12,West,267,0.0,0.0,97,0.00,,,0.00,Wunderground v.1.13,2013-08-21 08:39:00,
2013-08-21 04:44:00,55.0,54.2,30.12,West,267,0.0,0.0,97,0.00,,,0.00,Wunderground v.1.13,2013-08-21 08:44:00,
2013-08-21 04:49:00,54.8,53.7,30.12,West,267,0.0,0.0,96,0.00,,,0.00,Wunderground v.1.13,2013-08-21 08:49:00,
2013-08-21 04:54:00,54.7,53.9,30.12,West,267,0.0,0.0,97,0.00,,,0.00,Wunderground v.1.13,2013-08-21 08:54:00,
2013-08-21 04:59:00,54.8,54.0,30.12,West,267,0.0,0.0,97,0.00,,,0.00,Wunderground v.1.13,2013-08-21 08:59:00,
2013-08-21 05:04:00,54.6,53.8,30.12,West,267,0.0,0.0,97,0.00,,,0.00,Wunderground v.1.13,2013-08-21 09:04:00,
2013-08-21 05:09:00,54.5,53.7,30.12,West,267,0.0,0.0,97,0.00,,,0.00,Wunderground v.1.13,2013-08-21 09:09:00,
2013-08-21 05:14:00,54.4,53.6,30.12,West,267,0.0,0.0,97,0.00,,,0.00,Wunderground v.1.13,2013-08-21 09:14:00,
2013-08-21 05:19:00,54.4,53.6,30.12,West,267,0.0,0.0,97,0.00,,,0.00,Wunderground v.1.13,2013-08-21 09:19:00,
2013-08-21 05:24:00,54.5,53.7,30.12,West,267,0.0,0.0,97,0.00,,,0.00,Wunderground v.1.13,2013-08-21 09:24:00,
2013-08-21 05:29:00,54.5,53.7,30.13,West,267,0.0,0.0,97,0.00,,,0.00,Wunderground v.1.13,2013-08-21 09:29:00,
2013-08-21 05:34:00,54.5,53.7,30.13,West,267,0.0,0.0,97,0.00,,,0.00,Wunderground v.1.13,2013-08-21 09:34:00,
2013-08-21 05:39:00,54.4,53.6,30.13,West,267,0.0,0.0,97,0.00,,,0.00,Wunderground v.1.13,2013-08-21 09:39:00,
2013-08-21 05:44:00,54.3,53.5,30.13,West,267,0.0,0.0,97,0.00,,,0.00,Wunderground v.1.13,2013-08-21 09:44:00,
2013-08-21 05:49:00,54.1,53.3,30.13,West,267,0.0,0.0,97,0.00,,,0.00,Wunderground v.1.13,2013-08-21 09:49:00,
2013-08-21 05:54:00,54.0,53.2,30.13,West,267,0.0,0.0,97,0.00,,,0.00,Wunderground v.1.13,2013-08-21 09:54:00,
2013-08-21 05:59:00,54.2,53.4,30.13,West,267,0.0,0.0,97,0.00,,,0.00,Wunderground v.1.13,2013-08-21 09:59:00,
2013-08-21 06:04:00,54.1,53.3,30.13,West,267,0.0,0.0,97,0.00,,,0.00,Wunderground v.1.13,2013-08-21 10:04:00,
2013-08-21 06:09:00,54.0,53.2,30.14,West,267,0.0,0.0,97,0.00,,,0.00,Wunderground v.1.13,2013-08-21 10:09:00,
2013-08-21 06:15:00,53.9,53.1,30.14,West,267,0.0,0.0,97,0.00,,,0.00,Wunderground v.1.13,2013-08-21 10:15:00,
2013-08-21 06:20:00,53.9,53.1,30.14,West,267,0.0,0.0,97,0.00,,,0.00,Wunderground v.1.13,2013-08-21 10:20:00,
2013-08-21 06:25:00,53.8,53.0,30.14,West,267,0.0,0.0,97,0.00,,,0.00,Wunderground v.1.13,2013-08-21 10:25:00,
2013-08-21 06:30:00,53.7,52.9,30.14,West,267,0.0,0.0,97,0.00,,,0.00,Wunderground v.1.13,2013-08-21 10:30:00,
2013-08-21 06:35:00,53.8,53.0,30.14,West,267,0.0,0.0,97,0.00,,,0.00,Wunderground v.1.13,2013-08-21 10:35:00,
2013-08-21 06:40:00,53.8,53.0,30.14,West,267,0.0,0.0,97,0.00,,,0.00,Wunderground v.1.13,2013-08-21 10:40:00,
2013-08-21 06:45:00,54.0,53.2,30.14,West,267,0.0,0.0,97,0.00,,,0.00,Wunderground v.1.13,2013-08-21 10:45:00,
2013-08-21 06:50:00,54.1,53.3,30.14,West,267,0.0,0.0,97,0.00,,,0.00,Wunderground v.1.13,2013-08-21 10:50:00,
2013-08-21 06:55:00,53.9,53.1,30.14,West,267,0.0,0.0,97,0.00,,,0.00,Wunderground v.1.13,2013-08-21 10:55:00,
2013-08-21 07:00:00,54.0,53.2,30.14,West,267,0.0,0.0,97,0.00,,,0.00,Wunderground v.1.13,2013-08-21 11:00:00,
2013-08-21 07:05:00,54.2,53.4,30.15,West,267,0.0,0.0,97,0.00,,,0.00,Wunderground v.1.13,2013-08-21 11:05:00,
2013-08-21 07:10:00,54.5,53.7,30.15,West,267,0.0,0.0,97,0.00,,,0.00,Wunderground v.1.13,2013-08-21 11:10:00,
2013-08-21 07:15:00,54.6,53.8,30.15,West,267,0.0,0.0,97,0.00,,,0.00,Wunderground v.1.13,2013-08-21 11:15:00,
2013-08-21 07:20:00,54.9,54.1,30.15,West,267,0.0,0.0,97,0.00,,,0.00,Wunderground v.1.13,2013-08-21 11:20:00,
2013-08-21 07:25:00,55.0,54.2,30.15,West,267,0.0,0.0,97,0.00,,,0.00,Wunderground v.1.13,2013-08-21 11:25:00,
2013-08-21 07:30:00,55.6,54.8,30.15,West,267,0.0,0.0,97,0.00,,,0.00,Wunderground v.1.13,2013-08-21 11:30:00,
2013-08-21 07:35:00,56.2,55.4,30.15,West,267,0.0,0.0,97,0.00,,,0.00,Wunderground v.1.13,2013-08-21 11:35:00,
2013-08-21 07:40:00,56.7,56.1,30.15,West,267,0.0,0.0,98,0.00,,,0.00,Wunderground v.1.13,2013-08-21 11:40:00,
2013-08-21 07:45:00,57.1,56.5,30.15,West,267,0.0,0.0,98,0.00,,,0.00,Wunderground v.1.13,2013-08-21 11:45:00,
2013-08-21 07:50:00,57.9,57.3,30.15,West,267,0.0,0.0,98,0.00,,,0.00,Wunderground v.1.13,2013-08-21 11:50:00,
2013-08-21 07:55:00,58.5,57.7,30.15,West,267,0.0,0.0,97,0.00,,,0.00,Wunderground v.1.13,2013-08-21 11:55:00,
2013-08-21 08:00:00,59.0,58.2,30.15,West,267,0.0,0.0,97,0.00,,,0.00,Wunderground v.1.13,2013-08-21 12:00:00,
2013-08-21 08:05:00,59.8,58.9,30.15,West,267,0.0,0.0,97,0.00,,,0.00,Wunderground v.1.13,2013-08-21 12:05:00,
2013-08-21 08:10:00,60.6,59.5,30.15,West,267,0.0,0.0,96,0.00,,,0.00,Wunderground v.1.13,2013-08-21 12:10:00,
2013-08-21 08:15:00,61.5,60.3,30.15,West,267,0.0,0.0,96,0.00,,,0.00,Wunderground v.1.13,2013-08-21 12:15:00,
2013-08-21 08:20:00,62.2,60.5,30.15,West,267,0.0,0.0,94,0.00,,,0.00,Wunderground v.1.13,2013-08-21 12:20:00,
2013-08-21 08:25:00,63.1,61.0,30.15,West,267,0.0,0.0,93,0.00,,,0.00,Wunderground v.1.13,2013-08-21 12:25:00,
2013-08-21 08:30:00,63.9,61.2,30.15,West,267,0.0,0.0,91,0.00,,,0.00,Wunderground v.1.13,2013-08-21 12:30:00,
2013-08-21 08:35:00,64.1,61.1,30.14,West,267,0.0,0.0,90,0.00,,,0.00,Wunderground v.1.13,2013-08-21 12:35:00,
2013-08-21 08:40:00,64.9,61.9,30.14,West,267,0.0,0.0,90,0.00,,,0.00,Wunderground v.1.13,2013-08-21 12:40:00,
2013-08-21 08:45:00,65.2,60.9,30.14,West,267,1.0,2.0,86,0.00,,,0.00,Wunderground v.1.13,2013-08-21 12:45:00,
2013-08-21 08:50:00,65.7,61.4,30.14,West,267,1.0,1.0,86,0.00,,,0.00,Wunderground v.1.13,2013-08-21 12:50:00,
2013-08-21 08:55:00,66.2,61.6,30.14,West,267,0.0,1.0,85,0.00,,,0.00,Wunderground v.1.13,2013-08-21 12:55:00,
2013-08-21 09:00:00,66.7,61.7,30.14,West,267,0.0,0.0,84,0.00,,,0.00,Wunderground v.1.13,2013-08-21 13:00:00,
2013-08-21 09:05:00,67.0,61.7,30.14,West,265,0.0,0.0,83,0.00,,,0.00,Wunderground v.1.13,2013-08-21 13:05:00,
2013-08-21 09:10:00,67.7,61.7,30.14,West,265,0.0,0.0,81,0.00,,,0.00,Wunderground v.1.13,2013-08-21 13:10:00,
2013-08-21 09:15:00,68.2,61.4,30.14,West,265,0.0,0.0,79,0.00,,,0.00,Wunderground v.1.13,2013-08-21 13:15:00,
2013-08-21 09:20:00,68.8,62.4,30.14,West,265,0.0,0.0,80,0.00,,,0.00,Wunderground v.1.13,2013-08-21 13:20:00,
2013-08-21 09:25:00,69.7,62.9,30.14,West,265,0.0,0.0,79,0.00,,,0.00,Wunderground v.1.13,2013-08-21 13:25:00,
2013-08-21 09:30:00,70.3,63.5,30.13,West,265,0.0,0.0,79,0.00,,,0.00,Wunderground v.1.13,2013-08-21 13:30:00,
2013-08-21 09:35:00,70.6,62.7,30.13,West,265,0.0,0.0,76,0.00,,,0.00,Wunderground v.1.13,2013-08-21 13:35:00,
2013-08-21 09:40:00,70.9,63.0,30.13,West,265,0.0,0.0,76,0.00,,,0.00,Wunderground v.1.13,2013-08-21 13:40:00,
2013-08-21 09:45:00,71.2,62.9,30.13,West,265,0.0,0.0,75,0.00,,,0.00,Wunderground v.1.13,2013-08-21 13:45:00,
2013-08-21 09:50:00,71.4,62.7,30.13,West,265,0.0,0.0,74,0.00,,,0.00,Wunderground v.1.13,2013-08-21 13:50:00,
2013-08-21 09:55:00,71.9,63.9,30.13,West,265,0.0,0.0,76,0.00,,,0.00,Wunderground v.1.13,2013-08-21 13:55:00,
2013-08-21 10:00:00,72.4,63.6,30.13,West,265,0.0,0.0,74,0.00,,,0.00,Wunderground v.1.13,2013-08-21 14:00:00,
2013-08-21 10:05:00,72.7,63.5,30.12,West,265,0.0,0.0,73,0.00,,,0.00,Wunderground v.1.13,2013-08-21 14:05:00,
2013-08-21 10:10:00,73.0,63.8,30.13,West,265,0.0,0.0,73,0.00,,,0.00,Wunderground v.1.13,2013-08-21 14:10:00,
2013-08-21 10:15:00,73.5,63.9,30.12,West,265,0.0,1.0,72,0.00,,,0.00,Wunderground v.1.13,2013-08-21 14:15:00,
2013-08-21 10:20:00,74.0,64.4,30.12,West,265,0.0,1.0,72,0.00,,,0.00,Wunderground v.1.13,2013-08-21 14:20:00,
2013-08-21 10:25:00,74.5,64.5,30.12,West,266,1.0,1.0,71,0.00,,,0.00,Wunderground v.1.13,2013-08-21 14:25:00,
2013-08-21 10:30:00,75.1,65.1,30.12,West,266,0.0,1.0,71,0.00,,,0.00,Wunderground v.1.13,2013-08-21 14:30:00,
2013-08-21 10:35:00,75.6,64.7,30.12,West,265,0.0,0.0,69,0.00,,,0.00,Wunderground v.1.13,2013-08-21 14:35:00,
2013-08-21 10:40:00,76.2,65.3,30.11,West,264,1.0,1.0,69,0.00,,,0.00,Wunderground v.1.13,2013-08-21 14:40:00,
2013-08-21 10:45:00,76.7,64.9,30.11,WSW,255,2.0,3.0,67,0.00,,,0.00,Wunderground v.1.13,2013-08-21 14:45:00,
2013-08-21 10:50:00,77.0,64.8,30.11,WSW,255,0.0,1.0,66,0.00,,,0.00,Wunderground v.1.13,2013-08-21 14:50:00,
2013-08-21 10:55:00,77.6,65.3,30.11,WSW,254,1.0,1.0,66,0.00,,,0.00,Wunderground v.1.13,2013-08-21 14:55:00,
2013-08-21 11:00:00,78.2,65.5,30.11,SW,236,2.0,2.0,65,0.00,,,0.00,Wunderground v.1.13,2013-08-21 15:00:00,
2013-08-21 11:05:00,78.7,65.9,30.11,South,174,3.0,3.0,65,0.00,,,0.00,Wunderground v.1.13,2013-08-21 15:05:00,
2013-08-21 11:10:00,78.7,65.0,30.11,South,174,1.0,2.0,63,0.00,,,0.00,Wunderground v.1.13,2013-08-21 15:10:00,
2013-08-21 11:15:00,78.9,64.3,30.11,South,176,1.0,1.0,61,0.00,,,0.00,Wunderground v.1.13,2013-08-21 15:15:00,
2013-08-21 11:20:00,79.4,64.8,30.11,South,176,2.0,2.0,61,0.00,,,0.00,Wunderground v.1.13,2013-08-21 15:20:00,
2013-08-21 11:25:00,79.4,65.2,30.11,South,180,0.0,0.0,62,0.00,,,0.00,Wunderground v.1.13,2013-08-21 15:25:00,
2013-08-21 11:30:00,80.0,64.9,30.11,WSW,254,2.0,6.0,60,0.00,,,0.00,Wunderground v.1.13,2013-08-21 15:30:00,
2013-08-21 11:35:00,79.9,65.2,30.10,WNW,287,3.0,5.0,61,0.00,,,0.00,Wunderground v.1.13,2013-08-21 15:35:00,
2013-08-21 11:40:00,80.1,64.0,30.10,North,355,0.0,3.0,58,0.00,,,0.00,Wunderground v.1.13,2013-08-21 15:40:00,
2013-08-21 11:45:00,80.4,65.2,30.10,West,281,2.0,5.0,60,0.00,,,0.00,Wunderground v.1.13,2013-08-21 15:45:00,
2013-08-21 11:50:00,80.9,64.2,30.10,WNW,291,2.0,2.0,57,0.00,,,0.00,Wunderground v.1.13,2013-08-21 15:50:00,
2013-08-21 11:55:00,81.4,64.2,30.09,WSW,252,3.0,4.0,56,0.00,,,0.00,Wunderground v.1.13,2013-08-21 15:55:00,
2013-08-21 12:00:00,81.6,63.9,30.09,WNW,288,2.0,6.0,55,0.00,,,0.00,Wunderground v.1.13,2013-08-21 16:00:00,
2013-08-21 12:05:00,81.7,64.0,30.09,West,268,5.0,5.0,55,0.00,,,0.00,Wunderground v.1.13,2013-08-21 16:05:00,
2013-08-21 12:10:00,82.0,63.7,30.09,NNW,327,0.0,2.0,54,0.00,,,0.00,Wunderground v.1.13,2013-08-21 16:10:00,
2013-08-21 12:15:00,82.4,63.5,30.10,West,275,3.0,5.0,53,0.00,,,0.00,Wunderground v.1.13,2013-08-21 16:15:00,
2013-08-21 12:20:00,82.9,63.5,30.09,WSW,254,3.0,4.0,52,0.00,,,0.00,Wunderground v.1.13,2013-08-21 16:20:00,
2013-08-21 12:25:00,82.8,63.4,30.09,West,265,4.0,7.0,52,0.00,,,0.00,Wunderground v.1.13,2013-08-21 16:25:00,
2013-08-21 12:30:00,82.6,63.7,30.09,WNW,282,5.0,7.0,53,0.00,,,0.00,Wunderground v.1.13,2013-08-21 16:30:00,
2013-08-21 12:35:00,82.7,63.8,30.09,NW,307,3.0,6.0,53,0.00,,,0.00,Wunderground v.1.13,2013-08-21 16:35:00,
2013-08-21 12:40:00,82.6,64.3,30.09,West,269,3.0,4.0,54,0.00,,,0.00,Wunderground v.1.13,2013-08-21 16:40:00,
2013-08-21 12:45:00,82.5,63.1,30.09,West,277,3.0,5.0,52,0.00,,,0.00,Wunderground v.1.13,2013-08-21 16:45:00,
2013-08-21 12:50:00,82.2,62.3,30.09,WNW,284,1.0,10.0,51,0.00,,,0.00,Wunderground v.1.13,2013-08-21 16:50:00,
2013-08-21 12:55:00,82.4,62.5,30.09,West,273,0.0,3.0,51,0.00,,,0.00,Wunderground v.1.13,2013-08-21 16:55:00,
2013-08-21 13:00:00,83.2,63.2,30.08,WSW,238,4.0,7.0,51,0.00,,,0.00,Wunderground v.1.13,2013-08-21 17:00:00,
2013-08-21 13:05:00,83.7,62.5,30.08,WNW,288,5.0,6.0,49,0.00,,,0.00,Wunderground v.1.13,2013-08-21 17:05:00,
2013-08-21 13:10:00,83.7,62.5,30.08,WNW,302,5.0,5.0,49,0.00,,,0.00,Wunderground v.1.13,2013-08-21 17:10:00,
2013-08-21 13:15:00,83.5,63.5,30.08,NNW,340,0.0,3.0,51,0.00,,,0.00,Wunderground v.1.13,2013-08-21 17:15:00,
2013-08-21 13:20:00,83.5,61.7,30.08,WNW,284,4.0,7.0,48,0.00,,,0.00,Wunderground v.1.13,2013-08-21 17:20:00,
2013-08-21 13:25:00,82.9,62.9,30.08,West,265,3.0,4.0,51,0.00,,,0.00,Wunderground v.1.13,2013-08-21 17:25:00,
2013-08-21 13:30:00,83.4,62.2,30.08,West,269,3.0,4.0,49,0.00,,,0.00,Wunderground v.1.13,2013-08-21 17:30:00,
2013-08-21 13:35:00,83.6,61.8,30.08,WSW,255,0.0,3.0,48,0.00,,,0.00,Wunderground v.1.13,2013-08-21 17:35:00,
2013-08-21 13:41:00,83.9,61.5,30.07,SSW,209,2.0,3.0,47,0.00,,,0.00,Wunderground v.1.13,2013-08-21 17:41:00,
2013-08-21 13:45:00,84.6,62.7,30.07,WNW,286,1.0,2.0,48,0.00,,,0.00,Wunderground v.1.13,2013-08-21 17:45:00,
2013-08-21 13:51:00,85.1,62.6,30.07,NNW,335,1.0,9.0,47,0.00,,,0.00,Wunderground v.1.13,2013-08-21 17:51:00,
2013-08-21 13:56:00,84.8,62.9,30.07,NE,38,0.0,4.0,48,0.00,,,0.00,Wunderground v.1.13,2013-08-21 17:56:00,
2013-08-21 14:02:00,84.7,63.4,30.08,West,273,11.0,11.0,49,0.00,,,0.00,Wunderground v.1.13,2013-08-21 18:02:00,
2013-08-21 14:07:00,84.6,62.7,30.07,WSW,240,2.0,9.0,48,0.00,,,0.00,Wunderground v.1.13,2013-08-21 18:07:00,
2013-08-21 14:12:00,83.7,63.7,30.07,West,264,0.0,4.0,51,0.00,,,0.00,Wunderground v.1.13,2013-08-21 18:12:00,
2013-08-21 14:17:00,83.0,62.4,30.07,WNW,287,5.0,9.0,50,0.00,,,0.00,Wunderground v.1.13,2013-08-21 18:17:00,
2013-08-21 14:22:00,82.6,62.6,30.07,West,280,3.0,5.0,51,0.00,,,0.00,Wunderground v.1.13,2013-08-21 18:22:00,
2013-08-21 14:27:00,82.5,63.1,30.07,West,273,2.0,5.0,52,0.00,,,0.00,Wunderground v.1.13,2013-08-21 18:27:00,
2013-08-21 14:32:00,83.0,61.9,30.06,NE,36,2.0,4.0,49,0.00,,,0.00,Wunderground v.1.13,2013-08-21 18:32:00,
2013-08-21 14:37:00,84.0,62.2,30.06,North,355,0.0,6.0,48,0.00,,,0.00,Wunderground v.1.13,2013-08-21 18:37:00,
2013-08-21 14:42:00,84.4,62.0,30.06,WNW,284,3.0,10.0,47,0.00,,,0.00,Wunderground v.1.13,2013-08-21 18:42:00,
2013-08-21 14:47:00,83.6,61.8,30.06,WNW,290,4.0,5.0,48,0.00,,,0.00,Wunderground v.1.13,2013-08-21 18:47:00,
2013-08-21 14:52:00,83.2,61.5,30.06,WNW,288,3.0,4.0,48,0.00,,,0.00,Wunderground v.1.13,2013-08-21 18:52:00,
2013-08-21 14:57:00,83.0,61.9,30.05,North,360,0.0,3.0,49,0.00,,,0.00,Wunderground v.1.13,2013-08-21 18:57:00,
2013-08-21 15:02:00,83.3,60.4,30.05,NE,37,2.0,3.0,46,0.00,,,0.00,Wunderground v.1.13,2013-08-21 19:02:00,
2013-08-21 15:07:00,83.9,61.5,30.04,NW,309,5.0,5.0,47,0.00,,,0.00,Wunderground v.1.13,2013-08-21 19:07:00,
2013-08-21 15:12:00,83.7,60.7,30.04,NW,304,1.0,7.0,46,0.00,,,0.00,Wunderground v.1.13,2013-08-21 19:12:00,
2013-08-21 15:17:00,83.7,61.9,30.04,WNW,303,2.0,3.0,48,0.00,,,0.00,Wunderground v.1.13,2013-08-21 19:17:00,
2013-08-21 15:22:00,84.5,62.1,30.04,WNW,303,2.0,3.0,47,0.00,,,0.00,Wunderground v.1.13,2013-08-21 19:22:00,
2013-08-21 15:27:00,84.9,62.4,30.04,West,269,0.0,3.0,47,0.00,,,0.00,Wunderground v.1.13,2013-08-21 19:27:00,
2013-08-21 15:32:00,85.2,61.5,30.04,NW,317,3.0,5.0,45,0.00,,,0.00,Wunderground v.1.13,2013-08-21 19:32:00,
2013-08-21 15:37:00,85.2,61.5,30.03,West,272,4.0,6.0,45,0.00,,,0.00,Wunderground v.1.13,2013-08-21 19:37:00,
2013-08-21 15:42:00,85.2,61.5,30.03,WNW,301,0.0,4.0,45,0.00,,,0.00,Wunderground v.1.13,2013-08-21 19:42:00,
2013-08-21 15:47:00,85.4,61.6,30.03,WNW,301,0.0,3.0,45,0.00,,,0.00,Wunderground v.1.13,2013-08-21 19:47:00,
2013-08-21 15:52:00,85.9,63.9,30.02,WNW,299,1.0,3.0,48,0.00,,,0.00,Wunderground v.1.13,2013-08-21 19:52:00,
2013-08-21 15:57:00,86.4,62.5,30.02,NW,304,2.0,2.0,45,0.00,,,0.00,Wunderground v.1.13,2013-08-21 19:57:00,
2013-08-21 16:02:00,86.4,62.5,30.03,West,269,2.0,5.0,45,0.00,,,0.00,Wunderground v.1.13,2013-08-21 20:02:00,
2013-08-21 16:07:00,85.7,61.9,30.03,WSW,248,3.0,6.0,45,0.00,,,0.00,Wunderground v.1.13,2013-08-21 20:07:00,
2013-08-21 16:12:00,84.8,61.7,30.03,WSW,246,3.0,9.0,46,0.00,,,0.00,Wunderground v.1.13,2013-08-21 20:12:00,
2013-08-21 16:17:00,84.3,61.3,30.03,SW,236,3.0,3.0,46,0.00,,,0.00,Wunderground v.1.13,2013-08-21 20:17:00,
2013-08-21 16:22:00,84.3,60.6,30.03,West,267,1.0,6.0,45,0.00,,,0.00,Wunderground v.1.13,2013-08-21 20:22:00,
2013-08-21 16:28:00,84.6,60.9,30.03,WSW,247,1.0,3.0,45,0.00,,,0.00,Wunderground v.1.13,2013-08-21 20:28:00,
2013-08-21 16:33:00,84.6,62.1,30.03,West,275,3.0,4.0,47,0.00,,,0.00,Wunderground v.1.13,2013-08-21 20:33:00,
2013-08-21 16:38:00,84.9,61.2,30.03,WNW,292,3.0,5.0,45,0.00,,,0.00,Wunderground v.1.13,2013-08-21 20:38:00,
2013-08-21 16:43:00,84.5,60.2,30.03,WNW,284,4.0,9.0,44,0.00,,,0.00,Wunderground v.1.13,2013-08-21 20:43:00,
2013-08-21 16:48:00,83.9,62.1,30.03,WNW,291,2.0,5.0,48,0.00,,,0.00,Wunderground v.1.13,2013-08-21 20:48:00,
2013-08-21 16:53:00,84.2,63.0,30.03,WNW,291,1.0,3.0,49,0.00,,,0.00,Wunderground v.1.13,2013-08-21 20:53:00,
2013-08-21 16:58:00,83.7,60.7,30.02,WNW,286,4.0,5.0,46,0.00,,,0.00,Wunderground v.1.13,2013-08-21 20:58:00,
2013-08-21 17:04:00,83.3,61.6,30.02,West,269,2.0,5.0,48,0.00,,,0.00,Wunderground v.1.13,2013-08-21 21:04:00,
2013-08-21 17:09:00,83.0,63.0,30.02,West,269,0.0,2.0,51,0.00,,,0.00,Wunderground v.1.13,2013-08-21 21:09:00,
2013-08-21 17:14:00,82.7,63.8,30.02,West,277,3.0,7.0,53,0.00,,,0.00,Wunderground v.1.13,2013-08-21 21:14:00,
2013-08-21 17:19:00,83.0,63.6,30.02,West,276,0.0,6.0,52,0.00,,,0.00,Wunderground v.1.13,2013-08-21 21:19:00,
2013-08-21 17:24:00,83.3,62.7,30.02,West,276,2.0,4.0,50,0.00,,,0.00,Wunderground v.1.13,2013-08-21 21:24:00,
2013-08-21 17:29:00,83.5,64.0,30.02,West,276,0.0,3.0,52,0.00,,,0.00,Wunderground v.1.13,2013-08-21 21:29:00,
2013-08-21 17:34:00,83.2,62.6,30.02,West,276,0.0,3.0,50,0.00,,,0.00,Wunderground v.1.13,2013-08-21 21:34:00,
2013-08-21 17:39:00,82.5,64.7,30.02,West,270,3.0,4.0,55,0.00,,,0.00,Wunderground v.1.13,2013-08-21 21:39:00,
2013-08-21 17:44:00,82.3,64.0,30.02,West,260,1.0,5.0,54,0.00,,,0.00,Wunderground v.1.13,2013-08-21 21:44:00,
2013-08-21 17:49:00,82.5,66.2,30.02,West,260,1.0,2.0,58,0.00,,,0.00,Wunderground v.1.13,2013-08-21 21:49:00,
2013-08-21 17:54:00,82.4,67.6,30.02,West,260,2.0,2.0,61,0.00,,,0.00,Wunderground v.1.13,2013-08-21 21:54:00,
2013-08-21 17:59:00,82.0,66.7,30.01,West,260,0.0,1.0,60,0.00,,,0.00,Wunderground v.1.13,2013-08-21 21:59:00,
2013-08-21 18:04:00,81.8,67.0,30.01,West,260,0.0,2.0,61,0.00,,,0.00,Wunderground v.1.13,2013-08-21 22:04:00,
2013-08-21 18:09:00,81.4,66.7,30.01,West,260,0.0,2.0,61,0.00,,,0.00,Wunderground v.1.13,2013-08-21 22:09:00,
2013-08-21 18:14:00,80.8,67.9,30.01,West,260,0.0,1.0,65,0.00,,,0.00,Wunderground v.1.13,2013-08-21 22:14:00,
2013-08-21 18:19:00,80.3,67.9,30.01,West,260,0.0,1.0,66,0.00,,,0.00,Wunderground v.1.13,2013-08-21 22:19:00,
2013-08-21 18:24:00,79.4,67.0,30.01,West,260,0.0,2.0,66,0.00,,,0.00,Wunderground v.1.13,2013-08-21 22:24:00,
2013-08-21 18:29:00,78.5,66.2,30.01,West,260,0.0,0.0,66,0.00,,,0.00,Wunderground v.1.13,2013-08-21 22:29:00,
2013-08-21 18:34:00,78.2,67.6,30.01,West,260,0.0,1.0,70,0.00,,,0.00,Wunderground v.1.13,2013-08-21 22:34:00,
2013-08-21 18:39:00,78.2,68.0,30.01,West,260,0.0,0.0,71,0.00,,,0.00,Wunderground v.1.13,2013-08-21 22:39:00,
2013-08-21 18:44:00,78.1,68.3,30.01,West,260,0.0,0.0,72,0.00,,,0.00,Wunderground v.1.13,2013-08-21 22:44:00,
2013-08-21 18:49:00,77.4,67.7,30.01,West,260,0.0,0.0,72,0.00,,,0.00,Wunderground v.1.13,2013-08-21 22:49:00,
2013-08-21 18:54:00,76.8,67.5,30.00,West,260,0.0,0.0,73,0.00,,,0.00,Wunderground v.1.13,2013-08-21 22:54:00,
2013-08-21 18:59:00,76.1,67.6,30.00,West,260,0.0,0.0,75,0.00,,,0.00,Wunderground v.1.13,2013-08-21 22:59:00,
2013-08-21 19:04:00,75.3,66.4,30.00,West,260,0.0,2.0,74,0.00,,,0.00,Wunderground v.1.13,2013-08-21 23:04:00,
2013-08-21 19:09:00,74.4,66.0,30.00,West,260,0.0,0.0,75,0.00,,,0.00,Wunderground v.1.13,2013-08-21 23:09:00,
2013-08-21 19:14:00,73.7,66.4,30.01,West,260,0.0,0.0,78,0.00,,,0.00,Wunderground v.1.13,2013-08-21 23:14:00,
2013-08-21 19:19:00,73.0,65.4,30.01,West,260,0.0,1.0,77,0.00,,,0.00,Wunderground v.1.13,2013-08-21 23:19:00,
2013-08-21 19:24:00,72.4,65.5,30.01,West,260,0.0,0.0,79,0.00,,,0.00,Wunderground v.1.13,2013-08-21 23:24:00,
2013-08-21 19:29:00,71.9,65.4,30.01,West,260,0.0,0.0,80,0.00,,,0.00,Wunderground v.1.13,2013-08-21 23:29:00,
2013-08-21 19:34:00,71.3,65.2,30.01,West,260,0.0,0.0,81,0.00,,,0.00,Wunderground v.1.13,2013-08-21 23:34:00,
2013-08-21 19:39:00,70.8,65.4,30.01,West,260,0.0,0.0,83,0.00,,,0.00,Wunderground v.1.13,2013-08-21 23:39:00,
2013-08-21 19:44:00,70.3,65.2,30.01,West,260,0.0,0.0,84,0.00,,,0.00,Wunderground v.1.13,2013-08-21 23:44:00,
2013-08-21 19:49:00,69.9,64.5,30.02,West,260,0.0,0.0,83,0.00,,,0.00,Wunderground v.1.13,2013-08-21 23:49:00,
2013-08-21 19:54:00,69.5,65.1,30.02,West,260,0.0,0.0,86,0.00,,,0.00,Wunderground v.1.13,2013-08-21 23:54:00,
2013-08-21 19:59:00,69.1,64.7,30.02,West,260,0.0,0.0,86,0.00,,,0.00,Wunderground v.1.13,2013-08-21 23:59:00,
2013-08-21 20:04:00,68.8,65.1,30.01,West,260,0.0,0.0,88,0.00,,,0.00,Wunderground v.1.13,2013-08-22 00:04:00,
2013-08-21 20:09:00,68.4,65.0,30.01,West,260,0.0,0.0,89,0.00,,,0.00,Wunderground v.1.13,2013-08-22 00:09:00,
2013-08-21 20:14:00,68.1,64.7,30.01,West,260,0.0,0.0,89,0.00,,,0.00,Wunderground v.1.13,2013-08-22 00:14:00,
2013-08-21 20:19:00,67.9,64.5,30.01,West,260,0.0,0.0,89,0.00,,,0.00,Wunderground v.1.13,2013-08-22 00:19:00,
2013-08-21 20:24:00,67.4,64.4,30.01,West,260,1.0,1.0,90,0.00,,,0.00,Wunderground v.1.13,2013-08-22 00:24:00,
2013-08-21 20:29:00,67.2,64.5,30.01,West,260,0.0,0.0,91,0.00,,,0.00,Wunderground v.1.13,2013-08-22 00:29:00,
2013-08-21 20:34:00,67.0,64.3,30.02,West,260,0.0,0.0,91,0.00,,,0.00,Wunderground v.1.13,2013-08-22 00:34:00,
2013-08-21 20:39:00,66.7,64.0,30.02,West,260,0.0,0.0,91,0.00,,,0.00,Wunderground v.1.13,2013-08-22 00:39:00,
2013-08-21 20:44:00,66.5,63.8,30.02,West,260,0.0,0.0,91,0.00,,,0.00,Wunderground v.1.13,2013-08-22 00:44:00,
2013-08-21 20:49:00,66.1,63.4,30.02,West,260,0.0,0.0,91,0.00,,,0.00,Wunderground v.1.13,2013-08-22 00:49:00,
2013-08-21 20:54:00,65.7,63.0,30.02,West,260,0.0,0.0,91,0.00,,,0.00,Wunderground v.1.13,2013-08-22 00:54:00,
2013-08-21 20:59:00,65.4,63.0,30.02,West,260,0.0,0.0,92,0.00,,,0.00,Wunderground v.1.13,2013-08-22 00:59:00,
2013-08-21 21:04:00,65.3,62.9,30.01,West,260,0.0,0.0,92,0.00,,,0.00,Wunderground v.1.13,2013-08-22 01:04:00,
2013-08-21 21:09:00,64.9,62.5,30.01,West,260,0.0,0.0,92,0.00,,,0.00,Wunderground v.1.13,2013-08-22 01:09:00,
2013-08-21 21:14:00,64.8,62.4,30.01,West,260,0.0,0.0,92,0.00,,,0.00,Wunderground v.1.13,2013-08-22 01:14:00,
2013-08-21 21:19:00,64.6,62.2,30.01,West,260,0.0,0.0,92,0.00,,,0.00,Wunderground v.1.13,2013-08-22 01:19:00,
2013-08-21 21:24:00,64.4,62.0,30.01,West,260,0.0,0.0,92,0.00,,,0.00,Wunderground v.1.13,2013-08-22 01:24:00,
2013-08-21 21:29:00,64.1,61.7,30.01,West,260,0.0,0.0,92,0.00,,,0.00,Wunderground v.1.13,2013-08-22 01:29:00,
2013-08-21 21:34:00,64.0,61.9,30.01,West,260,0.0,0.0,93,0.00,,,0.00,Wunderground v.1.13,2013-08-22 01:34:00,
2013-08-21 21:39:00,63.6,61.5,30.01,West,260,0.0,0.0,93,0.00,,,0.00,Wunderground v.1.13,2013-08-22 01:39:00,
2013-08-21 21:44:00,63.6,61.5,30.01,West,260,0.0,0.0,93,0.00,,,0.00,Wunderground v.1.13,2013-08-22 01:44:00,
2013-08-21 21:49:00,63.4,61.6,30.01,West,260,0.0,0.0,94,0.00,,,0.00,Wunderground v.1.13,2013-08-22 01:49:00,
2013-08-21 21:54:00,63.3,61.5,30.01,West,260,0.0,0.0,94,0.00,,,0.00,Wunderground v.1.13,2013-08-22 01:54:00,
2013-08-21 21:59:00,63.2,61.4,30.00,West,260,0.0,0.0,94,0.00,,,0.00,Wunderground v.1.13,2013-08-22 01:59:00,
2013-08-21 22:04:00,63.0,61.2,30.00,West,260,0.0,0.0,94,0.00,,,0.00,Wunderground v.1.13,2013-08-22 02:04:00,
2013-08-21 22:09:00,62.8,61.0,30.00,West,260,0.0,0.0,94,0.00,,,0.00,Wunderground v.1.13,2013-08-22 02:09:00,
2013-08-21 22:14:00,62.8,61.0,30.00,West,260,0.0,1.0,94,0.00,,,0.00,Wunderground v.1.13,2013-08-22 02:14:00,
2013-08-21 22:19:00,62.6,60.8,30.00,West,260,0.0,0.0,94,0.00,,,0.00,Wunderground v.1.13,2013-08-22 02:19:00,
2013-08-21 22:24:00,62.3,60.6,30.00,West,260,0.0,0.0,94,0.00,,,0.00,Wunderground v.1.13,2013-08-22 02:24:00,
2013-08-21 22:29:00,62.1,60.4,30.00,West,260,0.0,0.0,94,0.00,,,0.00,Wunderground v.1.13,2013-08-22 02:29:00,
2013-08-21 22:34:00,62.0,60.3,30.00,West,260,0.0,0.0,94,0.00,,,0.00,Wunderground v.1.13,2013-08-22 02:34:00,
2013-08-21 22:39:00,62.0,60.3,30.00,West,260,0.0,0.0,94,0.00,,,0.00,Wunderground v.1.13,2013-08-22 02:39:00,
2013-08-21 22:44:00,61.8,60.1,30.00,West,260,0.0,0.0,94,0.00,,,0.00,Wunderground v.1.13,2013-08-22 02:44:00,
2013-08-21 22:49:00,61.8,60.4,30.00,West,260,0.0,0.0,95,0.00,,,0.00,Wunderground v.1.13,2013-08-22 02:49:00,
2013-08-21 22:54:00,61.7,60.3,30.01,West,260,0.0,0.0,95,0.00,,,0.00,Wunderground v.1.13,2013-08-22 02:54:00,
2013-08-21 22:59:00,61.6,60.2,30.01,West,260,0.0,0.0,95,0.00,,,0.00,Wunderground v.1.13,2013-08-22 02:59:00,
2013-08-21 23:04:00,61.2,59.8,30.00,West,260,0.0,0.0,95,0.00,,,0.00,Wunderground v.1.13,2013-08-22 03:04:00,
2013-08-21 23:09:00,61.1,59.7,30.00,West,260,0.0,0.0,95,0.00,,,0.00,Wunderground v.1.13,2013-08-22 03:09:00,
2013-08-21 23:14:00,61.2,59.8,30.00,West,260,0.0,0.0,95,0.00,,,0.00,Wunderground v.1.13,2013-08-22 03:14:00,
2013-08-21 23:19:00,60.8,59.4,30.00,West,260,0.0,0.0,95,0.00,,,0.00,Wunderground v.1.13,2013-08-22 03:19:00,
2013-08-21 23:24:00,60.9,59.5,30.00,West,260,0.0,0.0,95,0.00,,,0.00,Wunderground v.1.13,2013-08-22 03:24:00,
2013-08-21 23:29:00,60.6,59.2,30.00,West,260,0.0,0.0,95,0.00,,,0.00,Wunderground v.1.13,2013-08-22 03:29:00,
2013-08-21 23:34:00,60.6,59.2,30.00,West,260,0.0,0.0,95,0.00,,,0.00,Wunderground v.1.13,2013-08-22 03:34:00,
2013-08-21 23:39:00,60.4,59.0,30.00,West,260,0.0,0.0,95,0.00,,,0.00,Wunderground v.1.13,2013-08-22 03:39:00,
2013-08-21 23:44:00,60.3,59.2,30.00,West,260,0.0,0.0,96,0.00,,,0.00,Wunderground v.1.13,2013-08-22 03:44:00,
2013-08-21 23:49:00,60.4,59.3,30.01,West,260,0.0,0.0,96,0.00,,,0.00,Wunderground v.1.13,2013-08-22 03:49:00,
2013-08-21 23:54:00,60.2,58.8,30.00,West,260,0.0,0.0,95,0.00,,,0.00,Wunderground v.1.13,2013-08-22 03:54:00,
2013-08-21 23:59:00,60.1,59.0,30.00,West,260,0.0,0.0,96,0.00,,,0.00,Wunderground v.1.13,2013-08-22 03:59:00,